Wind_Speed
20 20 20 20 19 19 19 19 19 18 17 17 16 16 16 15 15 15 16 16 15 14 13 12 12 12 12 12 10 9 8 7 7 10 11 9 10 12 12 12 12 11 13 13 12 13 16 20 22 21 19 18 17 17 16 16 15 15 13 10 9 8 7 8 7 5 6 5 5 6 5 5 5 1 3 3 4 4 2 1 1 1 2 3 3 3 3 4
21 21 21 21 21 21 21 21 20 19 18 18 17 17 16 15 15 15 17 17 17 16 15 14 13 12 12 12 12 10 9 8 9 8 8 8 13 15 13 13 13 12 13 14 15 15 17 20 23 23 21 20 19 18 17 16 16 15 14 12 11 9 7 8 9 7 7 5 4 5 6 6 6 2 0 1 2 2 1 2 3 2 2 4 5 4 3 3
22 21 21 21 21 22 22 22 21 21 20 19 19 18 18 17 16 15 16 18 19 18 16 15 14 13 12 12 13 12 10 10 10 8 8 11 13 15 15 15 14 14 15 15 16 18 19 21 23 24 23 22 20 19 18 16 15 15 15 14 13 11 8 7 10 10 8 4 3 6 6 9 8 4 4 1 1 2 2 2 4 3 3 5 6 5 4 4
23 23 23 22 22 22 22 22 22 22 22 21 21 20 20 18 17 16 16 18 19 19 18 16 16 15 14 13 13 13 12 11 12 9 9 11 11 14 16 16 16 16 16 15 16 18 19 20 21 24 25 23 22 21 18 15 15 15 14 14 12 11 9 5 8 10 8 4 4 6 7 11 9 5 5 2 2 4 3 3 4 3 4 5 5 5 5 5
24 24 24 24 24 23 23 23 23 23 23 23 23 22 21 20 20 18 17 17 18 19 19 17 17 17 16 15 13 13 12 13 14 10 8 11 12 13 15 17 18 18 18 15 14 17 18 18 19 22 24 24 24 21 18 16 16 15 14 15 12 11 9 6 9 9 7 5 3 5 9 13 9 5 6 4 3 4 5 3 4 4 4 5 4 4 5 5
26 25 25 25 25 25 25 24 24 24 24 24 24 24 23 23 22 20 19 19 19 19 19 18 17 18 18 16 15 13 12 14 15 11 10 13 13 13 14 17 19 20 19 16 15 15 16 18 18 19 21 23 23 21 19 18 17 16 15 15 14 13 10 8 10 10 8 5 3 5 12 12 8 7 4 4 4 3 5 4 5 4 4 5 4 4 5 5
28 28 28 28 27 27 26 26 26 25 25 25 25 25 25 24 24 23 22 21 20 20 20 19 17 19 19 18 17 15 14 13 14 15 14 14 14 13 13 15 19 21 20 18 16 15 15 16 16 17 19 22 22 21 21 21 19 17 17 16 16 15 12 10 11 11 8 6 6 9 12 10 9 7 2 4 4 2 4 4 4 4 4 5 4 3 4 5
30 30 30 30 30 29 29 28 28 27 27 27 27 27 26 26 25 25 24 23 22 21 21 20 18 19 19 19 18 17 17 13 13 18 17 14 15 14 13 14 17 20 22 21 19 17 16 15 16 17 18 19 21 22 24 24 21 18 17 17 17 15 14 14 13 11 9 9 9 10 11 10 11 7 2 3 4 3 4 3 4 5 5 5 4 5 4 5
31 31 31 31 31 31 31 31 30 30 29 29 28 28 28 28 27 27 26 25 25 24 23 21 20 19 19 19 18 19 20 15 14 18 17 15 16 15 14 14 16 18 22 23 21 19 16 14 16 17 18 20 22 24 26 26 23 20 19 19 18 16 16 16 15 14 13 10 10 12 11 9 10 8 4 5 4 4 5 4 5 7 6 5 5 5 5 5
32 32 32 32 32 32 32 32 32 32 32 31 31 31 30 29 29 29 28 27 27 26 25 23 22 20 20 18 17 21 23 18 16 17 17 17 17 17 16 15 15 17 20 22 23 20 17 15 17 19 22 24 24 25 27 26 24 22 22 21 20 19 18 16 15 14 13 10 11 12 10 8 9 8 7 8 6 5 6 5 6 7 6 4 4 5 5 6
33 33 33 33 33 33 33 33 33 33 33 33 33 33 33 32 31 30 30 29 28 29 28 26 24 22 21 18 17 24 24 18 17 17 18 18 18 18 17 16 16 17 18 21 22 22 20 19 20 23 24 24 24 25 26 25 25 25 24 24 24 22 21 18 16 14 14 12 11 10 9 9 10 10 10 9 7 5 6 5 4 6 5 4 4 4 5 6
33 33 33 33 34 34 34 34 34 34 34 34 34 34 35 35 34 33 32 31 30 30 29 29 27 25 23 17 20 27 22 18 18 18 20 20 19 18 18 18 17 18 18 19 21 23 23 22 23 23 23 24 25 25 24 23 25 26 26 26 26 25 23 21 18 17 17 14 12 10 10 10 10 12 13 9 7 5 5 4 4 4 4 4 4 5 6 7
33 33 33 33 33 34 34 34 35 35 35 35 35 35 36 36 36 35 35 34 32 32 31 31 29 28 24 18 25 29 21 19 20 19 21 22 22 19 18 20 19 19 19 19 21 23 25 25 24 23 24 26 26 25 23 23 24 25 27 26 26 26 23 21 20 19 19 15 12 11 11 10 10 13 14 10 8 6 5 6 6 4 4 4 5 6 6 7
32 33 33 33 33 33 33 33 34 34 35 36 36 36 36 37 37 36 37 36 35 34 33 33 31 31 26 21 29 31 22 21 20 20 22 24 25 22 19 20 20 20 20 20 21 22 25 27 27 26 27 26 25 26 25 26 27 28 28 27 27 26 21 19 20 19 18 16 14 12 11 11 10 13 16 14 10 8 6 6 5 4 5 6 6 6 6 7
32 32 33 33 33 33 33 33 33 33 34 35 35 36 36 38 38 38 38 38 38 37 36 36 34 33 28 25 32 32 25 22 20 23 25 26 27 24 21 22 22 22 22 22 22 22 25 27 29 29 27 26 26 26 26 28 28 28 28 26 24 22 20 18 18 18 17 16 15 13 12 12 12 13 16 17 12 10 7 6 6 5 7 7 6 6 7 8
32 33 33 33 33 34 34 33 33 33 33 34 35 35 36 37 38 38 39 39 40 39 39 38 36 35 31 29 33 34 30 25 25 27 26 26 27 25 24 24 24 24 23 24 23 24 25 27 29 29 29 28 27 26 27 28 26 25 26 24 21 19 20 18 15 16 17 17 16 15 13 14 13 12 14 18 15 12 9 7 7 6 6 6 6 7 8 9
34 35 35 35 35 35 36 35 35 34 34 34 35 35 35 36 37 38 38 40 41 41 41 40 39 38 34 32 33 35 34 30 29 28 25 26 26 27 28 26 26 25 25 25 25 25 26 26 27 30 31 29 28 27 28 26 22 22 21 20 20 18 20 19 15 16 18 19 17 15 15 15 13 11 15 20 17 12 10 8 7 6 6 6 6 8 8 9
37 38 38 38 38 38 38 38 37 37 36 36 36 36 36 36 36 36 37 39 40 42 43 42 41 40 37 35 34 36 36 34 32 29 27 27 26 28 29 28 29 28 28 27 26 26 26 26 27 29 31 30 29 29 27 22 20 21 18 17 19 19 20 17 15 16 16 17 18 17 16 16 14 13 17 21 18 12 8 7 7 6 5 5 7 7 7 8
40 41 41 42 42 42 42 42 41 40 40 39 39 38 38 37 37 37 36 37 39 41 43 43 43 40 38 38 36 37 38 37 36 33 30 29 28 29 29 30 31 31 31 29 26 27 27 28 29 28 26 26 27 27 25 21 21 21 18 19 20 20 19 13 13 14 11 13 16 17 17 18 17 16 19 21 19 14 10 8 8 7 7 5 6 7 7 8
42 42 43 44 44 44 45 45 44 44 44 43 42 41 41 40 40 39 37 36 38 40 42 44 44 41 39 40 40 39 40 39 38 36 33 32 32 32 31 31 32 33 32 28 27 28 30 32 29 23 20 22 24 26 25 25 24 22 22 23 20 20 19 15 13 11 10 14 17 17 19 20 19 19 21 21 19 17 14 12 9 8 8 7 6 7 8 8
42 42 42 43 44 44 46 46 46 47 47 47 46 45 45 44 43 43 40 37 38 40 40 42 44 42 38 40 42 41 41 41 39 38 36 35 36 36 34 32 32 32 29 28 30 32 34 33 24 20 21 22 23 26 27 28 26 24 25 24 21 20 16 12 13 12 13 18 19 19 19 21 21 19 21 21 19 20 17 14 11 10 10 8 7 7 8 8
43 43 43 44 45 45 45 46 47 47 47 48 48 48 48 47 47 46 43 39 38 41 42 40 42 42 36 37 43 43 43 43 41 39 38 38 39 39 37 34 32 30 28 32 35 36 36 27 19 21 24 24 24 26 29 29 28 27 27 25 24 22 15 9 10 13 18 21 19 21 19 21 22 21 23 23 20 22 20 16 13 12 11 9 8 8 9 8
46 47 47 47 48 48 47 48 48 48 47 48 48 49 49 49 50 50 47 43 38 40 44 42 40 40 36 36 42 45 43 42 42 41 40 41 40 39 39 36 33 30 31 35 36 36 31 19 18 26 27 26 26 26 29 32 32 31 30 28 25 23 21 16 12 12 19 20 16 19 19 21 24 23 25 24 21 24 24 19 15 14 13 11 11 10 10 9
50 50 51 51 51 52 51 51 52 52 51 50 50 50 50 50 51 51 51 48 41 42 46 44 41 39 37 36 41 46 44 42 43 43 42 43 41 41 41 38 35 33 33 34 34 35 27 19 25 31 28 28 27 27 30 33 35 33 32 29 26 23 21 24 20 15 20 23 20 20 22 23 24 23 26 25 23 25 26 22 18 16 14 14 14 12 11 10
53 53 53 53 52 52 54 53 53 54 54 54 54 53 53 52 52 52 52 50 46 47 47 45 45 44 41 39 42 46 45 43 42 43 44 44 42 42 43 42 39 37 35 34 34 34 28 26 31 32 30 31 29 29 30 31 34 33 32 30 27 25 21 27 28 19 23 31 28 23 24 25 24 22 25 27 25 25 28 26 21 18 15 15 15 14 14 12
53 53 53 53 51 49 51 52 52 53 54 54 56 57 56 56 56 55 54 51 50 51 50 48 49 49 46 44 43 44 45 44 41 42 44 44 43 43 45 45 43 39 37 36 37 35 30 30 35 34 31 31 31 32 30 30 33 33 31 28 27 28 26 30 32 24 23 31 29 23 21 22 25 24 24 27 26 26 28 27 23 19 17 15 14 15 16 13
49 48 48 49 48 45 45 45 47 49 49 49 51 53 55 56 58 58 57 55 51 49 51 51 50 50 49 48 47 46 46 43 40 40 43 45 44 45 47 47 45 42 40 40 40 36 31 33 37 35 32 32 33 32 29 28 31 31 29 28 29 31 30 30 34 31 22 23 28 28 22 20 25 25 24 26 26 26 27 27 25 20 16 15 14 16 17 15
43 43 42 43 43 42 39 37 37 39 39 40 42 45 47 49 54 57 58 55 48 43 46 49 49 51 53 52 50 49 47 44 40 38 41 45 45 44 47 48 46 44 42 43 41 34 29 33 36 35 33 34 33 29 27 28 30 29 29 30 31 33 32 31 37 37 28 21 26 30 27 24 24 23 21 23 25 27 28 27 27 22 16 14 14 16 18 16
38 38 37 36 37 36 33 31 32 33 33 35 37 39 41 43 46 51 54 51 43 40 44 49 50 52 54 55 54 51 49 48 45 41 42 45 46 45 45 46 46 46 45 44 43 37 33 34 35 36 35 34 31 28 28 30 31 27 27 31 32 34 34 34 40 40 35 33 32 29 30 30 26 21 19 21 24 27 28 29 29 26 20 14 13 16 18 17
34 34 34 33 32 31 31 32 33 34 36 37 38 39 40 42 44 46 47 43 38 38 44 50 52 52 52 56 57 55 53 51 49 46 45 46 47 45 44 44 45 47 47 47 46 43 39 36 37 38 37 35 32 30 30 32 31 27 27 31 34 36 36 37 41 41 40 43 41 31 28 30 30 25 20 20 21 21 24 27 28 28 23 17 13 15 18 18
33 34 34 32 31 32 34 36 38 39 40 41 40 40 40 42 44 44 41 38 36 35 41 49 53 52 52 55 58 58 57 55 53 50 47 47 49 48 46 47 48 49 50 50 49 47 44 42 41 40 38 36 34 33 33 34 33 29 30 32 34 36 36 37 41 44 45 46 40 35 30 30 33 28 20 18 17 15 19 22 26 29 27 21 13 12 15 17
34 35 36 35 33 35 37 39 41 41 42 42 42 41 41 42 44 42 38 37 39 37 41 50 52 52 52 54 56 58 58 56 53 52 50 48 50 51 49 49 50 52 52 52 51 50 47 45 43 41 40 39 38 37 37 38 36 33 33 34 35 38 39 39 41 45 48 46 39 35 35 35 36 29 20 18 18 16 14 16 23 27 25 21 15 12 12 13
35 37 38 37 36 38 39 40 41 42 42 41 42 42 41 42 43 44 41 33 33 37 43 50 52 52 51 49 50 55 59 55 48 46 48 50 50 50 50 48 47 49 50 50 51 50 47 45 44 43 42 41 41 40 41 41 39 36 36 36 36 38 40 41 42 44 47 45 41 39 38 39 38 31 25 24 22 17 12 15 22 23 21 20 18 14 14 12
36 38 39 39 39 39 39 41 42 42 41 40 41 41 40 42 42 43 45 34 23 33 44 49 50 50 48 45 42 47 54 54 48 42 40 45 50 51 51 49 47 48 49 49 51 50 49 48 46 44 44 43 41 41 41 40 37 35 35 36 36 36 38 40 41 42 43 42 43 43 43 43 40 34 30 27 25 19 13 15 22 25 23 22 23 18 15 14
38 38 39 39 40 41 41 42 42 40 40 39 39 40 39 41 41 41 44 36 20 27 41 49 51 48 47 48 45 45 51 52 52 52 45 41 45 49 52 51 47 47 49 49 50 51 51 49 45 44 44 42 40 40 40 38 36 35 36 38 39 37 36 36 37 38 39 40 42 43 44 42 37 34 32 29 28 25 21 21 23 27 25 23 25 21 12 12
40 39 39 40 41 43 42 40 40 39 38 38 37 38 39 38 40 40 40 37 23 21 35 48 54 49 48 51 50 49 53 52 53 56 53 47 44 42 45 49 47 47 48 50 50 51 51 49 46 45 45 43 40 40 41 40 38 37 40 40 38 35 33 33 34 35 38 41 41 41 41 38 35 35 34 32 31 30 30 29 27 28 28 27 28 23 13 13
42 41 41 41 41 42 41 38 38 37 36 37 36 36 37 35 36 38 37 36 27 18 28 43 52 50 48 50 50 50 52 52 51 51 51 50 46 38 35 39 41 43 45 48 50 50 49 49 47 46 45 43 41 40 40 41 38 39 41 39 35 34 32 33 35 36 39 40 37 36 36 34 34 32 29 30 30 27 29 31 30 30 31 31 30 24 16 16
45 44 44 43 42 41 41 38 37 36 35 36 36 34 36 35 33 33 34 34 28 19 22 35 48 50 46 48 52 52 50 49 49 50 49 50 51 46 41 41 41 43 45 45 48 49 48 44 43 45 46 43 41 41 41 41 40 40 41 37 35 35 36 37 38 38 38 37 34 33 32 31 30 27 22 23 25 24 23 25 27 29 33 34 30 24 19 17
47 46 46 45 42 39 39 38 37 37 36 34 34 33 34 33 31 30 31 30 27 22 20 29 42 50 49 47 51 53 52 51 51 52 52 53 55 53 52 51 47 46 48 49 49 48 47 42 36 38 43 41 40 44 46 43 42 42 39 36 35 35 36 38 38 36 35 34 31 29 26 25 25 21 18 17 19 19 19 21 25 27 31 33 27 23 22 20
47 46 46 45 41 36 36 38 38 38 37 34 34 33 32 30 29 28 28 27 26 23 20 24 34 45 51 51 49 50 52 54 55 55 56 57 58 58 59 57 50 46 48 54 55 51 49 48 41 31 29 34 41 48 49 45 43 45 43 38 38 37 35 35 36 35 34 33 29 24 22 22 19 14 14 15 16 16 16 18 23 26 27 28 26 26 26 23
48 45 43 41 39 34 34 36 38 38 37 35 34 32 29 29 27 25 26 25 25 23 21 22 27 37 46 52 52 49 51 57 58 58 60 62 61 60 61 59 53 48 46 51 56 54 51 53 49 37 28 32 41 46 49 47 43 44 45 41 41 39 36 35 37 35 33 32 29 22 16 14 12 11 14 16 14 15 17 17 21 23 24 25 27 28 27 24
48 45 42 40 38 36 35 36 38 39 38 35 33 30 26 26 26 23 24 24 24 22 20 21 25 34 41 47 53 51 50 56 59 57 60 64 62 60 62 60 57 53 50 52 58 59 58 56 51 44 38 34 36 35 41 46 44 42 42 42 42 41 38 38 37 34 32 32 31 25 15 9 10 14 16 15 15 17 19 18 19 21 21 25 27 27 27 24
46 43 42 40 39 39 39 40 40 40 38 35 31 28 24 24 24 23 21 23 24 22 20 22 25 31 37 41 48 53 52 55 59 57 58 61 59 59 61 61 59 57 54 56 59 61 61 58 52 46 41 36 32 31 33 37 40 41 41 41 42 43 41 39 36 33 32 32 31 30 24 17 12 13 12 13 16 20 20 18 19 21 22 24 26 25 25 23
43 41 41 41 39 40 42 43 41 39 37 34 29 25 23 23 23 21 20 21 23 22 20 22 24 27 33 36 42 50 54 57 60 56 54 57 58 58 59 61 62 60 57 57 57 59 61 60 55 49 43 38 35 35 37 36 36 41 44 43 43 42 39 36 35 33 33 32 31 33 31 23 15 12 15 19 21 22 21 19 20 21 20 22 24 23 22 21
41 40 40 41 42 44 46 44 41 37 35 32 27 24 22 21 21 20 19 20 21 20 21 23 23 23 28 33 38 43 51 58 60 56 52 52 56 58 59 63 65 64 62 59 58 61 63 63 59 55 50 44 40 42 46 43 39 42 44 44 43 41 36 34 36 35 33 32 32 33 33 29 23 19 19 24 24 22 23 21 19 20 21 21 22 21 20 20
41 41 39 40 41 45 46 43 39 35 31 29 26 22 20 20 20 19 19 20 20 19 20 22 22 22 24 29 35 40 48 57 59 59 52 49 52 56 58 63 67 68 66 62 61 62 64 65 63 60 57 50 45 45 44 42 42 41 41 41 42 42 37 31 35 37 34 32 31 30 31 32 31 27 25 26 23 21 27 25 19 19 21 21 20 19 18 19
42 42 41 40 41 44 44 40 35 30 27 28 24 20 18 18 18 18 18 19 20 19 20 20 20 20 21 25 30 36 45 55 59 60 55 49 50 53 55 60 67 70 68 65 63 64 65 66 64 63 60 53 49 47 39 37 41 40 36 37 39 42 41 35 34 36 35 32 30 28 28 31 33 31 30 29 25 24 30 29 20 19 21 21 20 20 19 20
41 41 42 44 44 46 44 38 31 25 24 25 21 17 17 17 16 17 17 18 19 20 19 18 18 19 19 22 27 32 40 52 59 60 57 51 47 48 51 56 65 72 70 68 66 66 67 67 66 66 62 55 52 47 37 34 39 40 36 35 38 41 44 41 35 32 32 32 29 27 27 30 32 30 29 29 28 29 32 29 22 21 22 23 22 22 21 20
41 41 42 45 47 48 44 36 28 22 20 20 19 15 15 16 16 16 17 16 17 19 19 17 17 18 18 20 25 29 35 48 58 60 58 54 46 42 46 52 62 70 72 71 69 68 68 69 69 69 64 57 54 49 42 39 41 41 37 33 36 40 43 43 36 28 28 29 27 27 27 28 27 25 25 26 28 32 34 29 22 22 24 25 25 24 24 22
41 43 44 45 46 47 42 34 27 20 17 18 16 13 14 16 16 16 16 16 16 17 18 18 16 16 16 18 22 26 32 42 55 61 60 56 47 38 40 48 58 67 73 73 70 69 68 70 72 71 65 61 57 51 48 46 43 42 38 32 36 39 39 41 38 30 28 27 25 24 23 23 23 22 22 23 25 29 33 31 25 24 25 25 25 26 25 22
42 44 45 46 46 46 41 32 25 19 16 17 15 13 14 15 16 16 16 15 15 15 16 17 16 15 14 15 20 24 29 36 47 58 61 58 50 38 35 45 57 65 70 72 69 68 69 70 73 72 66 64 59 52 50 50 47 46 42 36 39 40 37 39 41 34 29 27 26 24 22 23 25 26 25 25 27 30 32 32 27 25 25 25 26 27 26 24
42 43 46 46 45 45 41 32 23 17 15 15 14 13 14 14 15 16 15 14 15 15 15 15 14 13 12 13 16 21 28 32 40 52 60 61 54 41 32 42 56 62 64 67 69 69 68 69 73 73 69 66 61 54 53 53 51 48 43 37 41 42 35 36 40 37 29 27 28 28 27 28 30 31 30 31 33 32 32 31 29 24 24 26 28 29 30 29
Wind_Direction
303 303 303 302 301 300 299 299 298 297 295 293 291 289 286 283 279 277 276 275 274 273 273 271 269 271 276 279 278 276 279 274 251 242 249 243 226 228 223 224 226 216 221 220 213 215 215 213 215 217 216 217 219 215 211 203 194 188 187 193 194 185 183 186 184 170 159 178 215 215 234 250 252 325 36 351 358 0 343 309 273 241 252 262 259 247 229 222
301 300 299 299 298 298 298 298 298 297 295 293 292 290 288 286 282 277 275 273 271 270 270 270 268 265 266 271 274 272 269 270 265 253 255 244 228 229 226 225 228 219 221 220 211 211 212 213 215 217 216 218 220 218 214 206 197 189 187 195 196 187 185 194 190 182 181 190 216 230 264 263 257 283 3 347 4 7 8 349 326 305 277 277 279 277 257 243
301 300 298 297 296 295 295 295 296 296 294 292 290 290 289 287 284 280 276 274 272 269 268 269 268 265 261 262 265 268 265 263 267 262 251 244 235 232 227 226 228 222 224 223 216 212 212 212 213 215 216 218 220 221 218 210 200 190 190 195 197 191 185 205 204 202 199 181 246 254 269 263 258 280 279 307 350 320 344 329 319 302 287 280 279 284 271 258
300 300 298 297 295 293 292 291 291 292 291 291 289 288 287 286 284 281 278 276 274 272 268 266 266 266 262 257 257 260 263 263 259 253 254 253 243 237 230 227 228 227 228 227 222 219 218 217 214 215 217 218 220 223 221 216 207 195 191 198 201 195 190 208 195 196 198 174 252 253 259 268 270 285 282 312 347 321 320 313 315 299 292 287 281 282 271 266
297 296 296 295 294 293 292 290 289 288 287 287 287 286 286 286 284 282 279 277 276 275 271 265 264 265 263 259 255 252 256 261 255 245 255 257 246 241 233 227 228 230 232 231 229 226 225 223 219 218 219 218 220 223 222 220 214 201 196 200 205 199 190 193 180 189 207 193 229 260 271 274 273 270 278 316 332 316 307 306 310 304 303 294 284 279 271 268
292 292 292 291 291 291 290 290 289 287 286 284 284 283 283 283 283 282 279 277 276 276 274 269 264 263 263 260 256 251 249 254 257 250 246 252 251 246 239 231 228 232 235 234 235 232 230 227 223 223 222 222 222 222 223 223 219 211 205 201 205 204 193 193 187 186 200 211 244 267 269 268 265 268 287 318 313 306 297 292 290 297 311 305 303 286 273 267
289 288 288 287 287 286 287 287 287 286 285 284 282 281 280 280 280 281 280 278 275 274 275 272 267 263 262 260 258 256 250 245 254 253 241 243 250 248 244 237 229 231 236 236 235 235 234 230 224 222 223 225 224 222 224 225 222 217 213 207 208 210 202 193 184 178 187 217 249 252 258 264 272 276 280 299 302 287 280 292 288 295 309 304 309 286 265 260
288 287 287 285 284 283 283 282 282 283 283 283 282 280 279 278 277 277 277 277 276 274 273 272 270 265 262 260 258 258 253 243 246 250 242 241 246 246 245 242 234 230 233 235 234 232 231 226 221 220 221 224 223 220 222 225 223 219 218 217 216 211 207 205 202 213 225 226 239 249 252 257 268 266 241 281 297 273 272 295 285 288 297 291 293 282 263 256
288 287 286 285 284 282 281 280 279 279 279 279 279 279 278 277 276 274 274 274 274 274 272 272 269 267 264 260 259 259 254 241 239 246 244 242 241 242 242 243 241 234 232 235 234 232 229 223 218 216 217 220 220 219 221 223 223 219 218 223 224 217 212 211 213 231 244 231 231 244 244 247 256 258 274 287 280 275 280 282 274 280 287 283 284 287 282 270
289 287 286 285 283 282 281 280 278 277 276 275 275 276 275 276 275 274 272 271 271 272 271 271 269 267 265 262 261 259 252 241 241 247 245 243 240 240 240 241 243 240 236 235 235 233 229 225 219 214 214 216 217 218 221 223 222 220 219 224 228 227 223 219 215 225 238 235 234 240 242 249 250 254 279 278 259 266 277 272 269 275 279 278 280 286 288 279
290 289 287 286 284 283 281 280 278 276 275 273 272 272 272 272 272 272 272 270 269 268 268 269 267 266 264 264 263 257 251 243 243 247 248 244 241 239 239 239 242 242 239 237 236 233 229 225 221 217 215 216 218 219 221 221 222 221 219 223 228 230 232 230 225 224 228 230 235 236 238 249 254 262 272 261 235 235 258 270 274 271 272 279 280 279 276 272
291 290 288 287 285 284 282 280 278 276 275 273 271 270 269 269 268 269 269 269 269 267 266 265 265 265 264 264 261 256 252 247 241 242 249 248 242 238 239 238 238 241 241 237 235 232 230 226 224 222 218 218 219 220 222 220 224 227 225 226 229 230 233 236 236 234 234 232 229 227 229 238 251 262 260 241 218 214 239 274 285 264 270 292 294 287 276 272
292 291 289 288 286 285 283 281 280 278 276 273 271 269 268 267 266 266 266 266 266 266 266 264 262 262 261 260 259 257 254 249 242 239 247 250 246 237 236 238 235 237 239 238 235 231 230 228 227 225 221 221 219 219 219 217 220 226 232 235 234 233 233 235 237 239 242 241 232 225 225 228 237 252 255 239 217 218 251 276 279 260 264 290 296 295 285 272
294 293 291 290 288 286 284 282 281 279 277 275 272 270 268 267 266 265 264 263 263 263 264 264 262 260 258 253 256 259 256 251 248 244 242 245 246 239 234 237 235 235 237 238 237 233 230 230 228 226 224 224 222 220 216 214 216 219 225 231 233 233 233 233 233 236 241 245 237 223 219 220 222 241 252 244 223 218 244 260 263 264 265 273 283 293 295 284
295 294 293 291 290 288 287 285 283 281 279 277 275 272 270 267 266 264 263 262 261 260 260 261 261 260 256 249 254 260 258 253 251 246 240 238 241 240 236 236 235 233 233 235 237 235 232 230 230 229 228 226 225 224 220 219 222 222 224 227 228 228 227 229 230 232 236 241 237 222 217 221 225 234 243 245 234 217 225 238 238 252 261 267 285 296 304 306
296 295 293 292 291 290 289 287 285 283 281 279 277 274 271 269 267 265 264 262 261 259 258 257 258 259 255 249 252 258 255 250 246 245 244 242 241 240 237 237 237 235 234 234 234 236 235 232 231 231 230 227 227 227 226 228 229 229 230 231 230 222 220 225 228 229 229 233 233 224 218 220 228 231 238 251 250 228 222 225 223 236 250 259 286 295 306 315
296 295 294 292 291 290 288 287 285 284 282 281 279 276 274 271 268 266 265 263 261 260 258 256 255 255 254 250 250 253 254 251 248 249 249 248 244 239 237 236 238 237 235 233 231 234 236 235 232 231 231 229 228 228 229 232 234 235 235 235 232 223 220 222 224 230 232 231 226 220 219 219 223 216 228 251 253 233 217 206 206 224 245 261 279 284 299 313
296 295 293 291 290 289 287 286 284 283 281 280 279 277 275 273 270 267 265 264 262 260 258 256 254 253 252 251 250 251 253 252 250 248 247 249 246 241 238 235 237 237 236 235 231 231 234 236 235 232 232 230 229 230 232 236 237 238 238 235 232 226 224 220 221 232 239 235 223 215 218 217 219 215 222 240 247 238 220 201 207 224 237 264 276 275 290 308
295 294 292 291 289 288 286 285 283 282 280 278 277 276 275 273 271 268 265 264 263 261 260 257 255 253 252 250 248 248 249 248 247 245 244 246 246 243 240 236 236 236 236 236 234 233 233 234 235 234 235 235 234 233 235 237 236 237 237 234 230 227 225 217 218 228 233 239 230 219 219 218 214 216 220 227 239 250 246 226 220 225 230 245 268 278 290 299
294 293 291 289 288 287 285 284 283 281 279 277 275 274 273 272 270 268 265 264 263 262 261 259 256 252 252 251 247 245 247 247 247 246 243 243 244 243 241 238 237 235 236 237 238 237 235 233 233 234 240 240 238 236 234 234 232 232 232 231 228 223 220 215 209 209 218 236 242 233 225 221 212 216 226 227 239 255 255 244 229 226 235 234 256 282 287 290
296 294 292 290 288 286 284 283 281 279 278 277 275 273 272 270 268 267 265 263 264 262 260 260 259 254 251 253 250 245 245 245 245 245 244 242 243 244 242 240 239 238 237 237 237 237 236 234 230 233 239 238 235 233 231 232 230 229 230 230 226 215 209 215 199 187 221 236 244 244 230 222 214 213 229 236 243 252 252 249 239 229 237 240 255 279 281 282
298 297 295 293 291 288 286 284 281 278 277 275 273 272 270 269 268 266 264 261 261 263 261 258 258 257 253 253 253 248 243 243 243 242 242 241 242 245 245 243 242 240 237 235 234 235 237 235 229 232 235 235 232 228 227 228 226 226 226 226 226 209 185 201 193 185 225 236 238 242 232 225 221 212 223 234 243 253 253 248 242 231 234 247 255 263 270 273
302 301 299 298 296 293 290 288 284 280 277 274 272 269 268 267 266 266 265 262 256 258 261 260 257 256 255 253 254 251 245 243 243 241 239 239 240 242 245 244 243 240 238 237 236 237 238 235 231 232 232 233 233 229 226 223 221 221 221 220 224 213 187 189 201 207 236 243 239 247 245 233 226 218 221 225 232 248 250 242 239 238 238 249 250 247 254 261
306 305 303 302 301 297 294 293 291 286 282 279 275 270 267 264 262 262 263 264 260 254 256 259 258 256 252 249 250 249 245 242 241 239 238 238 237 238 241 242 241 239 238 239 240 239 234 225 229 231 229 230 231 230 226 223 221 218 218 216 215 219 200 182 192 225 253 257 253 257 256 240 228 225 228 225 222 236 244 239 239 243 239 241 247 248 251 257
310 308 306 305 304 302 298 297 296 292 287 284 281 277 273 268 264 260 258 260 260 256 254 255 255 253 250 246 247 248 246 242 241 240 238 237 236 236 238 239 237 236 237 238 239 239 229 222 229 231 227 227 228 229 228 226 225 219 217 215 207 213 205 177 178 202 238 250 253 254 252 243 231 227 231 235 231 235 243 241 237 241 240 241 248 253 254 255
312 311 309 307 307 307 303 301 300 297 294 291 287 283 279 275 270 263 258 256 253 253 253 251 249 249 248 246 245 247 246 243 241 241 240 237 235 234 235 237 236 234 235 236 237 235 226 221 228 230 228 228 227 228 228 226 226 220 215 214 209 207 199 180 173 179 216 244 257 256 252 249 242 231 226 234 239 242 248 249 244 239 239 243 245 245 251 251
314 313 312 310 308 309 308 306 304 302 301 299 294 290 286 282 276 269 261 256 255 254 251 247 244 243 243 241 240 242 243 242 240 241 241 238 235 233 234 236 235 233 231 233 234 233 226 223 227 228 227 229 228 227 230 229 228 223 214 210 211 209 203 191 179 175 196 240 259 260 254 250 249 242 232 232 238 240 246 256 259 250 242 243 238 231 241 248
316 316 315 314 312 312 313 314 313 311 310 307 303 298 295 290 283 275 266 260 260 257 250 245 241 239 240 241 240 240 241 240 238 238 239 238 235 233 234 234 235 233 231 233 235 233 228 228 230 230 227 229 230 227 229 232 230 224 214 209 210 211 210 202 190 180 181 212 244 255 254 249 250 249 242 241 242 239 240 250 260 262 256 246 235 228 232 241
319 319 320 320 319 319 321 323 323 322 319 315 312 310 308 304 294 283 274 267 261 253 246 243 241 238 238 239 238 236 236 236 234 231 233 235 232 230 231 232 233 233 230 232 235 231 226 227 229 229 227 227 229 226 225 229 230 225 216 212 210 210 210 204 198 189 183 196 214 235 249 252 250 241 240 250 252 246 243 247 257 264 263 254 242 233 228 231
319 320 322 322 322 323 325 327 326 325 324 322 321 321 319 315 308 297 286 274 261 250 245 242 240 237 234 234 236 235 233 233 232 229 229 231 231 228 228 228 229 231 229 228 230 228 224 223 225 226 225 224 224 223 222 226 228 224 218 215 211 210 209 206 206 201 198 200 199 208 233 251 251 232 226 251 259 250 243 244 253 258 259 261 249 227 221 222
318 319 321 320 319 320 322 323 324 325 324 322 321 322 322 321 319 313 297 276 259 248 243 240 236 233 231 230 232 234 231 230 230 229 226 228 230 227 224 223 223 225 226 225 226 226 222 220 222 223 222 221 220 219 220 223 225 221 218 217 214 212 209 209 210 210 215 215 204 199 209 230 243 232 226 251 259 247 237 237 246 251 254 260 249 218 212 215
316 318 319 318 316 316 316 317 319 319 318 317 318 320 322 323 324 326 314 285 266 251 238 234 230 227 227 224 224 227 225 222 222 225 225 224 228 228 225 224 223 223 224 224 224 224 222 221 221 221 220 219 218 217 217 219 220 218 216 215 213 212 211 211 212 213 220 224 218 209 206 217 232 234 231 242 248 249 252 257 256 252 252 255 248 220 202 200
317 318 318 317 314 312 312 313 313 312 311 312 315 317 321 322 326 334 332 309 279 256 235 226 222 219 219 217 218 222 219 211 208 216 222 222 223 227 227 225 224 225 226 227 226 224 222 222 222 222 222 220 218 217 217 218 217 216 218 218 217 217 217 217 217 218 221 224 222 217 216 224 233 237 233 228 232 243 261 278 274 263 258 263 259 229 200 200
319 319 318 317 314 312 312 311 309 308 308 309 312 316 320 322 326 335 338 329 290 253 234 221 212 210 209 206 207 215 214 205 196 198 211 219 220 222 225 224 222 223 224 225 227 226 222 222 223 223 224 223 220 220 222 221 220 221 224 227 227 226 226 225 224 225 225 226 225 222 225 231 234 238 239 227 221 227 235 254 268 271 269 269 265 243 212 216
322 320 319 318 315 313 311 310 308 307 307 309 312 316 319 322 325 331 337 335 301 247 233 218 204 202 203 199 198 205 208 202 196 195 200 209 216 219 222 223 219 219 222 223 224 225 224 221 222 224 226 225 223 223 225 223 221 222 223 227 229 227 228 229 229 231 232 232 231 230 234 239 239 242 244 232 220 222 228 231 245 260 264 261 260 252 231 221
324 321 319 319 317 314 312 310 308 308 308 309 312 316 319 322 324 326 335 336 314 257 233 216 201 197 199 199 198 202 203 199 196 197 198 200 208 215 222 224 219 216 220 223 222 224 224 221 219 222 225 225 224 222 225 224 221 220 223 226 229 228 227 228 229 230 232 233 235 237 242 246 248 248 247 242 234 230 234 234 232 243 253 255 255 254 240 223
327 323 320 320 319 315 312 310 309 310 311 310 312 315 315 319 323 323 331 336 324 282 240 219 207 202 197 194 194 196 197 195 191 190 191 193 196 200 215 226 224 218 219 222 223 222 222 222 221 222 222 223 225 223 223 224 221 222 228 228 226 226 225 224 224 226 231 234 236 240 246 249 249 246 244 247 247 239 237 237 230 230 240 248 253 252 238 223
328 324 321 321 321 316 312 311 312 311 312 311 309 311 312 316 321 321 326 334 329 298 251 228 220 214 203 192 189 190 192 190 184 183 184 186 187 188 197 209 213 213 211 214 219 218 216 220 224 223 221 220 224 225 223 222 220 222 229 231 225 224 225 222 221 225 231 236 238 239 243 248 247 241 235 239 246 244 238 233 229 225 229 237 248 252 241 229
329 326 322 322 320 316 312 313 313 311 311 308 305 307 310 313 316 318 323 330 327 306 267 242 232 227 220 206 192 186 188 185 180 181 182 183 185 187 193 199 204 208 206 205 209 208 207 210 215 220 223 220 220 225 224 220 218 218 222 227 226 224 226 228 228 230 231 233 237 240 242 247 249 246 237 225 223 231 232 225 225 227 228 233 241 249 244 233
329 326 323 321 319 316 313 312 311 310 310 305 302 305 309 310 311 315 319 325 327 312 279 254 242 237 235 226 206 191 187 183 180 181 181 182 185 188 192 197 200 203 205 205 205 203 204 208 206 203 219 225 220 222 224 220 217 216 215 219 224 221 220 226 231 231 231 232 233 236 242 249 254 257 249 233 217 218 223 218 220 225 229 233 238 243 241 231
330 327 323 321 319 317 317 314 311 310 308 303 301 304 306 307 308 310 312 319 327 316 289 266 251 245 244 238 225 207 190 185 183 181 182 184 185 188 191 195 196 197 200 204 203 200 201 207 205 189 193 223 226 223 225 224 222 221 219 219 224 225 219 221 227 227 227 229 228 230 237 247 255 246 232 237 239 224 217 217 220 222 227 232 237 241 241 235
330 329 326 324 321 319 318 316 313 310 305 299 299 302 302 302 303 304 306 314 324 320 299 279 261 252 250 244 235 221 202 192 189 186 184 186 186 186 189 193 193 193 195 198 199 199 197 200 203 191 183 206 226 230 229 229 226 224 225 224 227 231 228 225 228 228 224 223 222 223 216 202 233 241 225 229 247 232 217 216 220 221 223 231 238 243 244 244
330 330 328 327 325 322 319 316 314 310 301 295 295 297 296 295 297 299 302 309 318 318 303 287 271 257 253 249 241 233 220 205 197 193 188 186 186 184 186 190 190 190 194 196 197 200 199 196 198 194 185 190 212 231 236 234 229 225 224 224 226 232 234 231 230 231 228 223 219 217 209 191 208 240 226 215 235 236 225 220 223 222 222 230 238 243 246 249
330 331 331 329 327 324 319 315 315 311 301 292 290 291 290 289 292 294 295 304 313 314 304 293 280 263 256 251 245 241 234 218 205 197 189 185 185 184 184 188 188 188 192 194 196 199 198 194 192 190 185 183 193 213 226 231 228 222 219 219 220 224 229 230 228 228 230 227 219 217 213 198 185 202 211 208 219 234 235 229 227 224 221 229 237 240 241 243
330 333 335 334 330 327 324 319 315 312 304 293 287 286 284 284 287 287 289 301 311 312 306 299 288 271 259 252 246 244 241 229 212 198 189 184 184 183 183 186 187 187 189 192 196 198 196 192 188 185 183 181 182 197 214 224 224 219 217 216 215 213 216 224 225 223 226 228 224 220 215 205 190 186 202 213 220 237 248 238 226 222 220 226 235 236 235 238
333 336 339 339 334 332 330 324 318 314 305 292 286 285 281 279 281 283 287 297 306 311 309 303 292 277 264 256 248 244 242 233 215 200 193 186 183 183 184 186 187 187 188 191 195 198 196 192 189 185 181 181 182 190 206 222 226 222 216 212 210 206 203 217 227 224 222 224 226 223 216 212 210 202 203 215 220 236 250 244 228 225 224 224 234 238 232 240
337 340 341 341 339 338 336 328 321 314 300 290 288 285 278 274 275 279 285 292 300 309 311 306 299 286 271 262 255 247 242 234 218 205 198 190 183 184 185 186 188 187 187 190 193 197 197 192 189 186 182 183 185 186 195 216 228 230 222 211 208 203 198 206 221 224 221 219 222 223 217 215 218 215 213 219 220 229 247 252 246 238 226 217 226 232 227 236
340 342 342 342 343 342 338 330 320 311 297 291 290 282 274 272 271 275 280 287 296 306 311 308 304 296 281 269 263 253 242 233 222 212 203 193 185 186 187 188 189 188 188 189 192 196 196 191 187 185 183 184 185 184 187 202 218 230 232 218 207 203 201 203 211 221 223 218 216 219 221 218 218 219 221 224 225 229 241 251 251 240 223 211 215 223 227 236
341 341 342 343 343 342 339 331 323 312 300 295 291 282 276 271 267 271 278 288 295 301 310 310 304 298 286 272 266 258 246 233 224 216 206 195 188 188 189 189 189 188 190 190 191 195 195 190 187 185 183 183 185 186 185 184 196 215 226 217 202 201 205 202 200 212 222 219 213 214 222 226 222 222 227 229 230 232 237 241 238 228 220 211 209 214 224 235
340 339 341 344 344 343 340 334 328 318 307 305 299 286 278 270 267 272 280 293 299 298 307 313 307 300 290 274 266 260 250 237 226 219 210 198 191 189 188 189 188 188 191 192 192 194 195 191 188 186 183 182 185 189 186 180 185 201 211 207 194 197 206 200 192 201 215 213 206 207 217 221 214 214 220 220 222 229 235 236 228 216 212 210 209 214 223 233
340 339 342 346 347 345 343 338 333 324 314 317 312 292 281 274 271 276 280 291 301 299 303 310 307 302 298 281 265 256 252 243 230 222 214 203 194 190 186 187 187 187 191 193 192 194 195 192 188 186 183 182 186 190 186 181 184 194 203 201 187 189 205 202 190 192 207 207 196 196 206 204 198 203 205 199 205 222 233 233 226 220 217 213 209 211 217 225
340 341 345 349 349 348 348 343 337 330 321 321 320 301 289 279 273 280 284 288 297 299 300 306 307 304 302 291 270 254 251 250 237 225 218 209 200 191 182 183 186 187 190 192 191 193 196 193 188 186 183 182 188 190 183 181 184 190 201 200 184 183 199 205 194 187 194 201 192 190 200 198 194 200 200 193 199 217 229 227 221 222 228 224 215 209 210 215
Height
5875 5875 5874 5874 5873 5873 5872 5872 5871 5871 5871 5870 5869 5869 5869 5869 5869 5868 5867 5867 5867 5867 5867 5867 5868 5868 5868 5868 5868 5868 5869 5869 5869 5869 5869 5869 5870 5870 5871 5871 5871 5872 5873 5874 5875 5876 5877 5878 5878 5879 5881 5882 5883 5885 5887 5889 5891 5893 5894 5894 5894 5895 5897 5897 5898 5899 5898 5898 5899 5897 5897 5896 5897 5900 5902 5902 5903 5904 5904 5904 5905 5905 5905 5905 5905 5906 5906 5907
5874 5873 5873 5872 5871 5871 5870 5870 5870 5869 5869 5869 5868 5867 5867 5867 5867 5867 5866 5865 5865 5865 5865 5866 5866 5866 5867 5866 5866 5867 5867 5867 5867 5868 5868 5868 5868 5869 5869 5870 5870 5872 5872 5872 5873 5874 5875 5876 5876 5878 5879 5880 5881 5883 5885 5887 5890 5892 5893 5893 5894 5895 5896 5897 5898 5898 5898 5899 5899 5898 5898 5896 5897 5900 5902 5903 5902 5903 5904 5904 5904 5904 5904 5904 5905 5905 5906 5907
5872 5871 5871 5870 5870 5869 5869 5868 5868 5867 5867 5867 5866 5866 5866 5865 5865 5865 5864 5863 5863 5863 5864 5864 5864 5865 5865 5865 5865 5865 5866 5866 5866 5867 5867 5867 5867 5867 5868 5869 5869 5870 5871 5871 5872 5872 5873 5873 5874 5876 5878 5879 5880 5881 5883 5886 5889 5891 5891 5892 5892 5894 5895 5896 5897 5897 5898 5900 5899 5898 5898 5896 5896 5898 5900 5902 5902 5903 5904 5904 5904 5904 5904 5904 5904 5904 5905 5906
5869 5869 5868 5868 5867 5867 5866 5866 5866 5865 5865 5865 5864 5864 5864 5864 5864 5863 5863 5862 5861 5861 5862 5863 5862 5862 5863 5863 5864 5864 5865 5865 5865 5865 5866 5865 5866 5866 5867 5867 5868 5869 5869 5870 5870 5871 5871 5872 5873 5875 5876 5877 5878 5880 5882 5884 5887 5889 5890 5890 5892 5893 5894 5895 5896 5897 5898 5900 5899 5899 5898 5895 5896 5898 5899 5900 5901 5902 5903 5904 5903 5903 5903 5904 5904 5904 5904 5905
5867 5866 5866 5865 5865 5864 5864 5864 5863 5863 5863 5862 5862 5862 5862 5861 5861 5861 5861 5861 5860 5859 5859 5860 5861 5860 5861 5861 5862 5863 5863 5863 5863 5864 5865 5864 5864 5865 5865 5866 5866 5867 5867 5868 5869 5870 5871 5872 5873 5874 5875 5876 5877 5879 5881 5883 5885 5888 5889 5890 5891 5892 5894 5895 5896 5897 5898 5899 5900 5899 5898 5896 5897 5899 5899 5899 5900 5901 5902 5902 5902 5902 5902 5903 5903 5903 5904 5904
5864 5864 5863 5862 5862 5862 5861 5861 5861 5860 5860 5860 5859 5859 5859 5859 5859 5859 5859 5859 5858 5858 5857 5858 5859 5858 5858 5859 5860 5861 5862 5861 5861 5863 5863 5862 5863 5863 5863 5864 5865 5865 5866 5867 5868 5869 5870 5871 5872 5873 5874 5875 5877 5879 5880 5881 5883 5886 5888 5889 5890 5891 5893 5894 5895 5896 5898 5898 5899 5899 5898 5897 5897 5898 5899 5899 5900 5901 5901 5901 5901 5901 5901 5902 5902 5902 5903 5904
5861 5861 5860 5859 5859 5859 5858 5858 5858 5857 5857 5857 5856 5856 5856 5856 5856 5856 5856 5857 5856 5856 5856 5856 5857 5856 5856 5857 5858 5859 5860 5860 5860 5860 5860 5861 5861 5861 5862 5863 5863 5864 5865 5866 5867 5868 5868 5870 5871 5873 5874 5874 5876 5878 5879 5880 5882 5884 5886 5888 5889 5890 5892 5893 5894 5897 5898 5898 5898 5898 5898 5897 5896 5897 5898 5899 5900 5900 5900 5900 5900 5900 5901 5901 5901 5902 5902 5903
5858 5857 5857 5856 5856 5856 5855 5855 5855 5854 5854 5854 5853 5853 5853 5853 5853 5853 5853 5854 5854 5854 5854 5854 5855 5854 5854 5855 5856 5857 5857 5859 5859 5857 5858 5859 5859 5860 5861 5861 5862 5863 5863 5864 5865 5866 5867 5868 5870 5871 5872 5874 5875 5876 5877 5878 5880 5882 5885 5886 5888 5890 5892 5893 5894 5896 5897 5898 5897 5896 5897 5897 5895 5896 5898 5898 5899 5899 5899 5900 5900 5900 5901 5901 5901 5901 5901 5902
5854 5854 5853 5852 5852 5852 5852 5851 5851 5851 5851 5850 5850 5850 5850 5850 5850 5850 5850 5851 5851 5851 5851 5852 5852 5852 5853 5853 5854 5854 5854 5856 5856 5856 5857 5857 5858 5858 5859 5859 5860 5861 5861 5862 5863 5864 5866 5867 5868 5870 5871 5871 5872 5873 5874 5876 5878 5881 5883 5884 5886 5888 5890 5892 5894 5895 5895 5897 5897 5896 5897 5897 5894 5893 5895 5897 5898 5898 5898 5899 5900 5900 5900 5901 5901 5901 5901 5902
5850 5850 5849 5849 5848 5848 5848 5847 5847 5847 5847 5847 5847 5846 5846 5846 5846 5846 5847 5847 5847 5848 5848 5849 5849 5850 5850 5851 5853 5851 5849 5853 5854 5854 5855 5855 5856 5856 5857 5858 5858 5859 5859 5860 5861 5863 5865 5866 5867 5867 5868 5868 5869 5871 5872 5874 5878 5880 5881 5882 5884 5886 5887 5890 5892 5893 5893 5895 5896 5896 5895 5895 5892 5891 5893 5896 5897 5898 5898 5899 5900 5899 5900 5900 5900 5900 5900 5901
5846 5845 5845 5844 5844 5844 5843 5843 5843 5843 5843 5843 5843 5843 5842 5842 5843 5843 5843 5843 5844 5844 5845 5845 5846 5847 5848 5850 5850 5846 5846 5851 5853 5852 5853 5853 5854 5855 5855 5856 5857 5857 5858 5858 5860 5861 5862 5864 5864 5864 5865 5867 5868 5869 5870 5874 5876 5877 5879 5880 5882 5883 5885 5887 5889 5891 5892 5893 5894 5894 5893 5893 5892 5891 5893 5896 5897 5898 5898 5899 5899 5899 5900 5900 5900 5900 5900 5900
5842 5841 5841 5840 5839 5839 5839 5839 5838 5838 5839 5839 5839 5839 5838 5838 5839 5839 5839 5839 5840 5840 5841 5842 5843 5844 5845 5848 5846 5842 5845 5849 5850 5850 5850 5851 5852 5853 5854 5854 5855 5855 5856 5857 5857 5859 5860 5861 5861 5862 5864 5865 5867 5868 5870 5873 5874 5876 5877 5878 5879 5881 5883 5885 5887 5889 5890 5891 5892 5892 5892 5893 5892 5890 5891 5895 5896 5897 5898 5898 5899 5899 5900 5900 5900 5900 5900 5900
5838 5837 5836 5836 5835 5835 5834 5834 5833 5833 5833 5834 5834 5834 5834 5834 5834 5835 5835 5835 5836 5836 5837 5837 5839 5840 5843 5846 5841 5839 5844 5846 5847 5848 5848 5848 5849 5851 5852 5852 5852 5853 5854 5854 5855 5856 5857 5858 5859 5861 5862 5862 5864 5866 5869 5871 5872 5874 5875 5876 5878 5879 5881 5883 5885 5887 5888 5890 5890 5890 5892 5893 5892 5889 5889 5893 5895 5896 5897 5897 5898 5899 5900 5900 5900 5900 5901 5900
5834 5833 5832 5831 5831 5830 5830 5829 5829 5828 5828 5828 5829 5829 5829 5829 5829 5830 5830 5831 5832 5832 5833 5833 5835 5836 5840 5843 5837 5836 5842 5842 5844 5846 5845 5845 5845 5847 5849 5849 5850 5851 5851 5852 5852 5854 5855 5856 5857 5858 5859 5861 5863 5864 5866 5867 5868 5870 5871 5873 5875 5877 5880 5882 5884 5885 5886 5888 5888 5890 5891 5892 5892 5889 5886 5890 5894 5896 5896 5896 5897 5898 5899 5900 5900 5900 5901 5901
5830 5828 5827 5827 5826 5825 5825 5825 5824 5824 5823 5823 5823 5823 5823 5823 5824 5825 5825 5826 5827 5827 5828 5829 5830 5832 5836 5839 5833 5833 5838 5840 5841 5840 5840 5842 5842 5844 5846 5847 5847 5848 5849 5849 5850 5851 5852 5853 5854 5855 5857 5859 5860 5861 5863 5864 5865 5867 5869 5870 5873 5876 5879 5881 5882 5884 5886 5886 5887 5889 5891 5890 5890 5889 5885 5887 5892 5895 5896 5896 5897 5898 5899 5899 5900 5900 5900 5900
5826 5824 5823 5822 5822 5821 5820 5820 5819 5819 5818 5818 5818 5818 5818 5818 5819 5820 5820 5821 5821 5822 5823 5824 5826 5827 5831 5833 5831 5830 5833 5836 5836 5835 5837 5839 5840 5842 5843 5844 5845 5845 5846 5847 5848 5849 5849 5850 5852 5853 5855 5856 5858 5860 5861 5862 5863 5865 5867 5869 5872 5875 5877 5879 5881 5883 5884 5885 5886 5887 5889 5889 5890 5889 5886 5885 5889 5893 5895 5897 5897 5898 5898 5898 5899 5899 5899 5899
5822 5820 5819 5818 5817 5816 5815 5815 5814 5814 5813 5813 5812 5812 5812 5813 5813 5815 5815 5815 5815 5816 5817 5819 5821 5822 5826 5828 5828 5827 5828 5831 5832 5833 5835 5836 5837 5838 5839 5841 5841 5842 5843 5844 5845 5846 5847 5848 5849 5850 5851 5854 5856 5858 5858 5860 5862 5864 5866 5869 5871 5873 5875 5877 5879 5881 5882 5884 5885 5886 5888 5889 5890 5890 5887 5884 5886 5890 5895 5896 5897 5897 5897 5897 5898 5898 5899 5899
5817 5816 5814 5813 5812 5811 5810 5809 5809 5809 5808 5808 5807 5807 5807 5807 5808 5809 5809 5809 5810 5810 5811 5813 5815 5817 5821 5823 5824 5824 5824 5827 5828 5830 5832 5832 5833 5834 5835 5837 5838 5839 5839 5840 5842 5843 5844 5845 5846 5847 5849 5851 5853 5855 5857 5860 5862 5863 5865 5868 5869 5871 5873 5876 5878 5879 5880 5881 5883 5885 5886 5888 5889 5890 5888 5885 5884 5888 5893 5896 5896 5897 5897 5897 5897 5898 5898 5898
5813 5811 5809 5808 5807 5806 5804 5804 5803 5803 5803 5802 5802 5802 5801 5802 5802 5803 5804 5804 5804 5805 5805 5806 5809 5812 5816 5817 5819 5819 5819 5821 5822 5825 5828 5828 5829 5830 5831 5833 5834 5835 5835 5837 5840 5841 5842 5842 5842 5845 5847 5850 5852 5854 5857 5859 5861 5862 5864 5865 5867 5869 5871 5875 5877 5877 5879 5880 5882 5884 5885 5886 5888 5889 5887 5886 5884 5886 5890 5894 5896 5896 5896 5897 5897 5897 5897 5897
5808 5806 5804 5802 5801 5800 5798 5797 5797 5796 5796 5796 5796 5796 5795 5796 5796 5796 5798 5800 5799 5799 5800 5800 5802 5807 5810 5810 5812 5814 5814 5816 5818 5821 5824 5824 5824 5825 5827 5828 5830 5831 5833 5836 5837 5837 5838 5837 5840 5845 5848 5849 5851 5853 5855 5856 5858 5860 5861 5862 5864 5867 5870 5874 5876 5876 5878 5880 5881 5883 5884 5885 5886 5887 5886 5886 5885 5884 5887 5891 5894 5895 5895 5896 5897 5896 5896 5897
5802 5800 5799 5796 5795 5794 5792 5791 5791 5789 5789 5789 5789 5789 5788 5789 5789 5789 5792 5794 5794 5793 5794 5795 5795 5801 5805 5804 5805 5808 5809 5811 5814 5816 5819 5820 5820 5820 5822 5825 5826 5828 5832 5834 5833 5832 5831 5834 5841 5845 5845 5846 5847 5849 5851 5853 5855 5857 5858 5859 5862 5864 5868 5873 5874 5875 5877 5879 5880 5881 5883 5883 5884 5886 5885 5885 5885 5884 5886 5889 5891 5893 5893 5894 5895 5895 5896 5897
5796 5794 5792 5790 5788 5787 5785 5783 5783 5782 5782 5781 5781 5781 5781 5781 5781 5782 5785 5789 5791 5788 5788 5791 5790 5794 5800 5799 5797 5800 5802 5805 5808 5811 5814 5815 5815 5816 5818 5821 5823 5826 5829 5828 5827 5827 5828 5835 5843 5842 5841 5842 5843 5845 5847 5849 5852 5854 5855 5857 5859 5862 5866 5871 5874 5875 5876 5878 5880 5880 5881 5882 5882 5884 5884 5884 5884 5883 5885 5887 5888 5891 5892 5892 5893 5894 5895 5896
5790 5787 5785 5783 5780 5779 5778 5775 5774 5775 5774 5773 5773 5773 5773 5774 5773 5775 5777 5781 5787 5785 5780 5783 5786 5789 5794 5794 5790 5791 5797 5801 5802 5806 5807 5808 5811 5813 5814 5816 5820 5822 5823 5822 5823 5824 5829 5838 5840 5836 5837 5839 5840 5842 5843 5845 5847 5849 5852 5854 5858 5861 5862 5867 5873 5876 5875 5877 5880 5879 5880 5881 5880 5882 5882 5883 5884 5882 5882 5885 5887 5888 5890 5891 5892 5893 5894 5894
5782 5779 5777 5775 5772 5770 5769 5767 5764 5764 5765 5764 5764 5764 5764 5765 5765 5767 5769 5773 5780 5779 5774 5777 5781 5783 5786 5787 5783 5783 5790 5794 5795 5799 5801 5803 5806 5808 5809 5812 5815 5817 5818 5819 5820 5822 5829 5835 5832 5830 5833 5835 5836 5838 5839 5840 5842 5846 5849 5852 5857 5860 5861 5864 5871 5876 5875 5875 5877 5879 5879 5878 5878 5879 5879 5881 5883 5881 5880 5883 5885 5886 5889 5890 5890 5891 5893 5893
5773 5771 5769 5767 5764 5761 5760 5759 5755 5754 5755 5754 5753 5754 5755 5755 5756 5758 5761 5766 5770 5768 5769 5773 5773 5774 5777 5778 5777 5778 5782 5787 5791 5793 5794 5798 5801 5803 5804 5806 5809 5812 5814 5816 5817 5819 5826 5829 5826 5826 5829 5831 5833 5834 5836 5838 5840 5843 5847 5850 5855 5858 5861 5863 5866 5872 5874 5871 5872 5876 5876 5876 5877 5877 5876 5877 5879 5880 5878 5880 5884 5885 5887 5889 5889 5890 5891 5892
5765 5763 5760 5759 5758 5754 5752 5750 5747 5745 5745 5744 5743 5743 5743 5744 5745 5747 5751 5758 5760 5759 5761 5764 5764 5765 5768 5770 5772 5772 5775 5781 5786 5786 5788 5792 5795 5797 5798 5799 5803 5807 5809 5812 5812 5814 5821 5823 5821 5823 5826 5828 5830 5831 5833 5836 5837 5840 5845 5850 5853 5855 5859 5861 5862 5866 5870 5869 5869 5872 5874 5874 5875 5875 5875 5875 5876 5877 5876 5876 5881 5884 5886 5888 5889 5890 5890 5891
5759 5756 5754 5751 5750 5749 5746 5744 5741 5739 5737 5736 5735 5734 5733 5733 5732 5736 5741 5747 5750 5749 5749 5750 5752 5754 5756 5760 5763 5764 5769 5776 5779 5781 5783 5786 5788 5791 5792 5793 5798 5802 5805 5806 5806 5810 5817 5818 5817 5820 5824 5825 5826 5829 5832 5834 5835 5839 5844 5848 5850 5852 5855 5858 5858 5861 5865 5868 5867 5867 5870 5872 5871 5872 5874 5875 5875 5876 5874 5873 5876 5880 5884 5887 5888 5889 5889 5890
5753 5751 5748 5745 5743 5742 5741 5738 5736 5734 5731 5730 5728 5726 5725 5723 5722 5725 5729 5737 5740 5735 5733 5736 5741 5745 5749 5754 5757 5760 5764 5768 5772 5775 5776 5776 5781 5785 5786 5788 5792 5796 5799 5800 5802 5810 5814 5815 5815 5818 5820 5821 5824 5829 5831 5832 5833 5837 5842 5844 5846 5849 5853 5856 5856 5856 5860 5865 5864 5863 5865 5867 5868 5870 5873 5874 5874 5874 5873 5872 5872 5876 5881 5885 5886 5888 5888 5889
5748 5746 5744 5741 5738 5736 5734 5733 5732 5730 5728 5725 5723 5721 5719 5716 5715 5715 5717 5726 5726 5719 5721 5729 5734 5739 5744 5748 5750 5753 5756 5759 5764 5767 5766 5767 5772 5777 5779 5784 5787 5790 5794 5796 5799 5805 5809 5811 5812 5813 5816 5819 5823 5827 5828 5829 5830 5835 5839 5841 5843 5845 5849 5853 5853 5852 5855 5856 5858 5860 5861 5862 5865 5868 5870 5870 5871 5872 5873 5873 5871 5872 5877 5881 5884 5885 5886 5887
5744 5742 5740 5737 5734 5731 5729 5728 5726 5725 5722 5720 5718 5716 5714 5711 5709 5707 5708 5712 5710 5707 5716 5724 5728 5731 5734 5739 5742 5745 5749 5752 5755 5758 5759 5760 5764 5770 5774 5777 5780 5782 5787 5789 5792 5797 5802 5805 5806 5808 5811 5816 5819 5822 5824 5825 5827 5832 5835 5836 5839 5841 5844 5848 5850 5851 5850 5846 5850 5856 5859 5859 5860 5863 5866 5867 5868 5870 5872 5873 5871 5870 5873 5877 5881 5883 5884 5885
5740 5738 5735 5733 5731 5728 5725 5723 5720 5718 5716 5714 5713 5711 5710 5706 5702 5701 5700 5698 5697 5701 5710 5715 5718 5720 5723 5730 5735 5737 5740 5743 5746 5749 5752 5754 5756 5761 5765 5767 5770 5774 5777 5781 5785 5790 5795 5798 5800 5803 5807 5811 5814 5817 5820 5822 5824 5827 5830 5832 5834 5836 5839 5842 5845 5847 5843 5841 5848 5853 5855 5856 5854 5858 5863 5864 5866 5868 5870 5871 5870 5868 5870 5875 5878 5881 5882 5884
5737 5734 5731 5728 5726 5723 5721 5719 5716 5714 5712 5710 5707 5705 5704 5700 5696 5695 5692 5688 5690 5696 5701 5702 5705 5710 5712 5718 5724 5725 5727 5731 5736 5739 5743 5747 5749 5753 5758 5761 5765 5767 5771 5776 5779 5782 5789 5793 5796 5799 5802 5806 5809 5812 5815 5816 5818 5821 5824 5826 5829 5831 5834 5835 5838 5840 5838 5841 5849 5852 5853 5852 5850 5854 5859 5860 5862 5865 5867 5869 5868 5866 5868 5872 5875 5879 5881 5883
5733 5730 5727 5724 5722 5719 5717 5715 5712 5710 5708 5705 5703 5699 5697 5694 5691 5690 5684 5681 5684 5687 5688 5688 5693 5698 5701 5709 5714 5711 5711 5717 5725 5731 5736 5739 5742 5747 5753 5758 5761 5765 5770 5774 5775 5778 5786 5789 5792 5795 5798 5801 5804 5806 5808 5810 5813 5817 5819 5822 5824 5827 5829 5830 5833 5835 5836 5841 5846 5851 5851 5847 5848 5854 5857 5858 5861 5863 5864 5865 5865 5864 5865 5868 5872 5876 5879 5882
5729 5726 5723 5719 5717 5715 5713 5710 5708 5706 5703 5700 5697 5694 5692 5688 5686 5685 5679 5675 5676 5677 5678 5680 5685 5688 5691 5699 5697 5690 5697 5707 5710 5715 5724 5730 5735 5740 5745 5751 5756 5761 5765 5767 5769 5774 5780 5783 5787 5792 5794 5797 5800 5803 5805 5809 5813 5816 5819 5821 5823 5825 5826 5828 5831 5833 5836 5839 5842 5847 5846 5843 5847 5852 5855 5858 5861 5862 5862 5863 5863 5862 5863 5866 5868 5872 5877 5880
5724 5722 5719 5715 5712 5710 5708 5705 5702 5700 5697 5694 5691 5688 5686 5683 5681 5679 5675 5670 5668 5669 5672 5674 5678 5680 5682 5683 5677 5678 5695 5701 5696 5701 5712 5721 5728 5734 5739 5745 5752 5756 5757 5759 5764 5769 5772 5777 5785 5789 5790 5794 5799 5801 5804 5807 5810 5814 5817 5817 5818 5822 5825 5828 5831 5833 5836 5837 5839 5841 5840 5841 5847 5850 5853 5858 5860 5861 5861 5862 5863 5861 5862 5864 5865 5869 5875 5877
5719 5717 5714 5711 5708 5704 5702 5699 5696 5693 5691 5689 5686 5683 5680 5678 5675 5673 5670 5666 5662 5661 5665 5668 5670 5670 5671 5672 5673 5680 5689 5687 5688 5700 5706 5710 5721 5731 5736 5739 5746 5751 5752 5756 5761 5763 5767 5774 5780 5784 5786 5790 5795 5798 5800 5803 5806 5809 5810 5812 5816 5821 5825 5827 5829 5831 5833 5833 5834 5836 5838 5841 5846 5847 5850 5854 5856 5859 5859 5860 5862 5860 5860 5861 5862 5866 5872 5875
5715 5712 5709 5707 5703 5699 5696 5693 5690 5688 5686 5683 5681 5679 5676 5674 5671 5668 5665 5661 5659 5656 5657 5661 5663 5660 5661 5666 5671 5676 5677 5677 5686 5695 5699 5704 5713 5722 5728 5733 5740 5745 5748 5752 5755 5757 5762 5769 5773 5777 5781 5786 5790 5794 5796 5799 5803 5805 5806 5810 5816 5819 5821 5824 5825 5827 5828 5829 5831 5835 5837 5839 5841 5842 5846 5849 5851 5854 5856 5857 5860 5860 5858 5857 5859 5864 5869 5872
5711 5707 5704 5701 5698 5693 5690 5687 5685 5682 5681 5678 5676 5674 5672 5669 5666 5663 5660 5657 5655 5653 5652 5654 5654 5653 5655 5659 5662 5666 5669 5675 5681 5685 5689 5697 5701 5703 5709 5716 5718 5721 5726 5733 5740 5748 5757 5762 5766 5771 5777 5783 5787 5789 5791 5795 5799 5802 5803 5807 5812 5814 5816 5818 5820 5822 5824 5827 5830 5833 5834 5836 5836 5839 5843 5846 5847 5849 5851 5853 5856 5857 5856 5855 5858 5862 5866 5869
5706 5702 5698 5696 5693 5688 5684 5682 5679 5677 5675 5673 5670 5668 5666 5664 5662 5659 5657 5653 5651 5649 5649 5649 5648 5649 5650 5651 5654 5658 5663 5669 5673 5676 5680 5686 5689 5691 5696 5702 5704 5707 5713 5718 5726 5739 5749 5754 5760 5766 5772 5778 5781 5781 5783 5789 5795 5798 5800 5802 5806 5810 5812 5815 5817 5821 5823 5825 5828 5830 5831 5832 5833 5837 5840 5843 5844 5846 5848 5850 5852 5854 5854 5854 5857 5860 5863 5866
5701 5697 5693 5689 5687 5683 5679 5677 5674 5671 5670 5667 5665 5663 5661 5659 5657 5655 5652 5650 5647 5645 5645 5645 5644 5644 5643 5644 5647 5650 5655 5660 5663 5667 5671 5675 5679 5681 5686 5695 5701 5707 5715 5719 5727 5737 5744 5748 5754 5761 5768 5772 5772 5774 5778 5785 5790 5793 5794 5796 5799 5804 5809 5812 5815 5818 5821 5824 5826 5828 5829 5830 5833 5835 5837 5839 5842 5844 5845 5847 5849 5851 5852 5853 5856 5858 5860 5864
5696 5692 5688 5684 5681 5678 5675 5672 5668 5666 5664 5661 5659 5657 5656 5654 5653 5651 5648 5646 5644 5641 5640 5641 5641 5638 5636 5638 5640 5641 5647 5652 5654 5659 5663 5665 5669 5673 5681 5690 5695 5701 5709 5717 5725 5731 5734 5739 5747 5754 5761 5765 5767 5771 5777 5782 5786 5790 5792 5793 5796 5800 5806 5809 5810 5814 5819 5822 5825 5827 5829 5831 5833 5834 5834 5836 5839 5841 5844 5845 5846 5848 5850 5852 5854 5855 5858 5861
5691 5687 5683 5679 5676 5674 5671 5667 5663 5660 5657 5655 5653 5652 5651 5649 5648 5647 5644 5642 5640 5638 5637 5636 5636 5634 5632 5633 5635 5637 5641 5644 5646 5650 5652 5655 5661 5668 5676 5684 5689 5694 5700 5706 5713 5716 5719 5728 5740 5748 5754 5759 5766 5771 5774 5777 5783 5788 5791 5793 5795 5798 5802 5805 5807 5812 5816 5820 5823 5826 5827 5830 5832 5831 5832 5834 5836 5838 5841 5843 5844 5846 5848 5849 5851 5853 5855 5858
5687 5683 5678 5674 5671 5668 5665 5662 5659 5655 5651 5649 5647 5646 5646 5645 5643 5642 5640 5638 5636 5635 5634 5633 5631 5630 5629 5629 5631 5632 5633 5633 5635 5639 5645 5652 5660 5665 5670 5676 5682 5688 5693 5700 5708 5713 5718 5726 5735 5744 5751 5756 5763 5768 5770 5774 5778 5782 5786 5790 5792 5794 5798 5802 5806 5810 5814 5817 5821 5823 5825 5828 5830 5830 5830 5833 5834 5835 5838 5841 5842 5844 5846 5847 5848 5851 5853 5855
5683 5680 5675 5671 5667 5664 5660 5656 5654 5650 5646 5644 5642 5641 5641 5640 5639 5638 5637 5634 5633 5631 5630 5628 5627 5627 5626 5626 5625 5625 5625 5625 5628 5636 5645 5653 5657 5661 5665 5670 5675 5681 5688 5698 5705 5709 5715 5722 5728 5738 5747 5750 5756 5762 5764 5766 5770 5775 5780 5785 5789 5792 5795 5800 5804 5808 5810 5813 5818 5820 5823 5827 5829 5829 5830 5831 5832 5833 5836 5839 5840 5842 5844 5845 5846 5849 5851 5853
5680 5677 5674 5668 5663 5659 5655 5651 5647 5644 5641 5639 5637 5636 5636 5635 5634 5634 5633 5631 5630 5628 5627 5625 5623 5623 5622 5621 5621 5619 5619 5619 5624 5634 5644 5649 5653 5657 5660 5663 5667 5674 5682 5690 5695 5698 5707 5715 5721 5729 5738 5743 5749 5755 5756 5758 5763 5769 5774 5779 5785 5790 5793 5796 5800 5804 5806 5810 5814 5817 5821 5825 5827 5829 5829 5829 5831 5833 5833 5835 5838 5840 5841 5842 5844 5847 5850 5851
5675 5672 5670 5667 5661 5655 5649 5645 5641 5638 5636 5633 5632 5632 5631 5631 5630 5630 5629 5628 5627 5625 5624 5622 5620 5619 5618 5617 5616 5614 5613 5615 5623 5632 5638 5643 5648 5651 5655 5658 5662 5669 5676 5682 5688 5694 5703 5711 5716 5723 5731 5738 5744 5750 5754 5757 5760 5764 5769 5774 5780 5787 5792 5794 5796 5800 5804 5807 5810 5814 5819 5822 5824 5827 5828 5829 5831 5832 5829 5830 5835 5838 5839 5841 5842 5844 5848 5850
5671 5667 5663 5661 5657 5651 5644 5639 5635 5633 5631 5628 5628 5628 5627 5627 5626 5626 5625 5625 5624 5623 5621 5619 5616 5615 5615 5613 5612 5610 5610 5614 5621 5626 5631 5638 5643 5646 5651 5654 5658 5665 5671 5675 5681 5689 5697 5704 5712 5720 5727 5733 5739 5746 5752 5755 5757 5760 5766 5771 5776 5782 5788 5791 5793 5797 5801 5806 5808 5811 5816 5818 5819 5824 5826 5827 5830 5830 5826 5827 5833 5836 5837 5839 5841 5843 5846 5848
5668 5663 5658 5654 5650 5645 5641 5635 5631 5628 5626 5625 5624 5624 5624 5624 5623 5623 5622 5622 5621 5620 5619 5617 5615 5613 5612 5610 5608 5607 5607 5611 5616 5620 5625 5632 5638 5643 5647 5651 5655 5661 5665 5669 5675 5681 5690 5700 5708 5715 5722 5728 5735 5743 5747 5750 5755 5759 5763 5769 5773 5778 5783 5787 5791 5796 5799 5803 5807 5810 5813 5815 5817 5821 5823 5825 5827 5827 5825 5826 5830 5833 5835 5838 5839 5841 5843 5845
5665 5661 5657 5651 5645 5640 5635 5631 5627 5624 5623 5621 5621 5620 5621 5621 5620 5620 5619 5619 5618 5617 5615 5614 5613 5611 5609 5608 5606 5604 5604 5606 5610 5615 5621 5627 5633 5638 5643 5648 5653 5658 5661 5664 5668 5675 5685 5695 5701 5708 5716 5723 5731 5737 5740 5744 5751 5755 5759 5765 5771 5775 5780 5785 5790 5795 5798 5801 5806 5809 5811 5813 5816 5819 5821 5821 5823 5823 5823 5825 5828 5830 5832 5835 5838 5839 5841 5843
5662 5658 5654 5650 5643 5636 5630 5626 5623 5621 5620 5619 5618 5618 5618 5618 5617 5617 5617 5616 5615 5614 5613 5611 5610 5609 5607 5605 5604 5603 5602 5602 5606 5611 5617 5623 5628 5633 5637 5642 5648 5655 5658 5659 5662 5671 5680 5688 5696 5704 5712 5719 5726 5732 5735 5739 5746 5751 5755 5761 5768 5773 5778 5783 5788 5793 5796 5799 5804 5807 5809 5812 5815 5818 5817 5818 5819 5820 5820 5822 5825 5828 5830 5833 5836 5838 5840 5842
5659 5655 5651 5647 5640 5633 5627 5622 5620 5619 5618 5616 5616 5615 5615 5615 5615 5614 5614 5613 5612 5612 5610 5609 5607 5606 5605 5603 5602 5600 5599 5600 5602 5607 5612 5618 5623 5627 5632 5637 5643 5650 5653 5655 5660 5669 5678 5686 5693 5701 5710 5718 5725 5729 5732 5734 5740 5746 5751 5757 5764 5770 5775 5780 5785 5790 5794 5798 5801 5805 5807 5809 5812 5814 5814 5815 5816 5816 5817 5819 5822 5826 5828 5831 5834 5837 5839 5841
5657 5652 5648 5643 5637 5630 5625 5620 5618 5616 5616 5615 5614 5613 5613 5612 5612 5611 5611 5611 5610 5609 5607 5606 5605 5604 5603 5601 5599 5599 5598 5597 5599 5603 5608 5612 5617 5623 5628 5633 5639 5644 5648 5652 5660 5667 5675 5682 5688 5695 5705 5714 5719 5724 5727 5729 5735 5742 5748 5754 5761 5767 5772 5778 5782 5787 5793 5797 5800 5803 5805 5807 5808 5810 5811 5812 5812 5813 5815 5817 5821 5824 5827 5829 5832 5834 5837 5840